• In Belarus
  • List of Countries
  • For 7 days
  • Water Temperature
  • Satellite Maps
  • Weather Map
  • Weather Widgets
  • user-avatar
    Login

    Hourly Weather Elbasan

    Today, 22 August, Tuesday

    Time Temperature Precipitation Wind Pressure Humidity
    00:00 +19°C° 0 mm 3 mps 734 mmHg 73%
    01:00 +18°C° 0 mm 3 mps 734 mmHg 75%
    02:00 +18°C° 0 mm 3 mps 734 mmHg 75%
    03:00 +18°C° 0 mm 3 mps 734 mmHg 75%
    04:00 +17°C° 0 mm 3 mps 734 mmHg 76%
    05:00 +18°C° 0 mm 3 mps 734 mmHg 70%
    06:00 +19°C° 0 mm 3 mps 735 mmHg 65%
    07:00 +21°C° 0 mm 3 mps 735 mmHg 56%
    08:00 +22°C° 0 mm 3 mps 735 mmHg 50%
    09:00 +25°C° 0 mm 3 mps 735 mmHg 44%
    10:00 +26°C° 0 mm 3 mps 735 mmHg 37%
    11:00 +28°C° 0 mm 3 mps 735 mmHg 34%
    12:00 +29°C° 0 mm 3 mps 735 mmHg 31%
    13:00 +30°C° 0 mm 3 mps 735 mmHg 30%
    14:00 +29°C° 0 mm 4 mps 735 mmHg 30%
    15:00 +29°C° 0 mm 4 mps 734 mmHg 30%
    16:00 +29°C° 0 mm 4 mps 734 mmHg 30%
    17:00 +27°C° 0 mm 4 mps 734 mmHg 36%
    18:00 +24°C° 0 mm 3 mps 735 mmHg 43%
    19:00 +21°C° 0 mm 2 mps 735 mmHg 49%
    20:00 +20°C° 0 mm 2 mps 735 mmHg 50%
    21:00 +19°C° 0 mm 2 mps 735 mmHg 51%
    22:00 +19°C° 0 mm 2 mps 735 mmHg 52%
    23:00 +18°C° 0 mm 2 mps 735 mmHg 52%

    Tomorrow, 23 August, Wednesday

    Time Temperature Precipitation Wind Pressure Humidity
    00:00 +18°C° 0 mm 2 mps 735 mmHg 51%
    01:00 +17°C° 0 mm 2 mps 735 mmHg 51%
    02:00 +17°C° 0 mm 2 mps 735 mmHg 51%
    03:00 +17°C° 0 mm 2 mps 735 mmHg 51%
    04:00 +17°C° 0 mm 2 mps 735 mmHg 51%
    05:00 +18°C° 0 mm 2 mps 735 mmHg 48%
    06:00 +20°C° 0 mm 2 mps 736 mmHg 45%
    07:00 +23°C° 0 mm 2 mps 736 mmHg 42%
    08:00 +25°C° 0 mm 1 mps 736 mmHg 38%
    09:00 +27°C° 0 mm 1 mps 736 mmHg 34%
    10:00 +29°C° 0 mm 1 mps 737 mmHg 29%
    11:00 +30°C° 0 mm 2 mps 737 mmHg 27%
    12:00 +31°C° 0 mm 3 mps 737 mmHg 26%
    13:00 +32°C° 0 mm 4 mps 736 mmHg 24%
    14:00 +32°C° 0 mm 4 mps 736 mmHg 25%
    15:00 +30°C° 0 mm 4 mps 736 mmHg 26%
    16:00 +30°C° 0 mm 4 mps 736 mmHg 27%
    17:00 +27°C° 0 mm 3 mps 736 mmHg 34%
    18:00 +25°C° 0 mm 2 mps 736 mmHg 42%
    19:00 +21°C° 0 mm 2 mps 736 mmHg 50%
    20:00 +21°C° 0 mm 1 mps 736 mmHg 50%
    21:00 +21°C° 0 mm 1 mps 737 mmHg 51%
    22:00 +20°C° 0 mm 1 mps 737 mmHg 52%
    23:00 +20°C° 0 mm 1 mps 737 mmHg 51%

    Day after tomorrow, 24 August, Thursday

    Time Temperature Precipitation Wind Pressure Humidity
    00:00 +20°C° 0 mm 1 mps 737 mmHg 50%
    01:00 +20°C° 0 mm 1 mps 737 mmHg 48%
    02:00 +19°C° 0 mm 1 mps 737 mmHg 48%
    03:00 +18°C° 0 mm 2 mps 737 mmHg 48%
    04:00 +18°C° 0 mm 2 mps 737 mmHg 47%
    05:00 +20°C° 0 mm 2 mps 737 mmHg 44%
    06:00 +22°C° 0 mm 1 mps 738 mmHg 42%
    07:00 +24°C° 0 mm 1 mps 738 mmHg 39%
    08:00 +26°C° 0 mm 1 mps 738 mmHg 35%
    09:00 +29°C° 0 mm 1 mps 738 mmHg 30%
    10:00 +31°C° 0 mm 1 mps 738 mmHg 26%
    11:00 +32°C° 0 mm 2 mps 738 mmHg 25%
    12:00 +34°C° 0 mm 2 mps 738 mmHg 24%
    13:00 +34°C° 0 mm 3 mps 738 mmHg 22%
    14:00 +34°C° 0 mm 3 mps 737 mmHg 23%
    15:00 +34°C° 0 mm 3 mps 737 mmHg 24%
    16:00 +33°C° 0 mm 4 mps 737 mmHg 24%
    17:00 +29°C° 0 mm 3 mps 737 mmHg 31%
    18:00 +27°C° 0 mm 2 mps 737 mmHg 37%
    19:00 +24°C° 0 mm 1 mps 737 mmHg 43%
    20:00 +23°C° 0 mm 1 mps 738 mmHg 43%
    21:00 +23°C° 0 mm 1 mps 738 mmHg 43%
    22:00 +23°C° 0 mm 1 mps 738 mmHg 43%
    23:00 +22°C° 0 mm 1 mps 738 mmHg 42%

    25 August, Friday

    Time Temperature Precipitation Wind Pressure Humidity
    00:00 +21°C° 0 mm 2 mps 738 mmHg 41%
    01:00 +21°C° 0 mm 2 mps 738 mmHg 40%
    02:00 +21°C° 0 mm 2 mps 738 mmHg 40%
    03:00 +20°C° 0 mm 2 mps 738 mmHg 40%
    04:00 +20°C° 0 mm 2 mps 738 mmHg 40%
    05:00 +23°C° 0 mm 2 mps 738 mmHg 38%
    06:00 +24°C° 0 mm 2 mps 738 mmHg 36%
    07:00 +26°C° 0 mm 2 mps 738 mmHg 35%
    08:00 +28°C° 0 mm 2 mps 739 mmHg 31%
    09:00 +31°C° 0 mm 1 mps 739 mmHg 27%
    10:00 +33°C° 0 mm 1 mps 739 mmHg 23%
    11:00 +35°C° 0 mm 2 mps 738 mmHg 22%
    12:00 +36°C° 0 mm 2 mps 738 mmHg 20%
    13:00 +36°C° 0 mm 3 mps 738 mmHg 19%
    14:00 +36°C° 0 mm 3 mps 737 mmHg 19%
    15:00 +36°C° 0 mm 3 mps 737 mmHg 20%
    16:00 +35°C° 0 mm 3 mps 737 mmHg 20%
    17:00 +31°C° 0 mm 3 mps 737 mmHg 27%
    18:00 +28°C° 0 mm 2 mps 737 mmHg 33%
    19:00 +25°C° 0 mm 1 mps 737 mmHg 39%
    20:00 +25°C° 0 mm 1 mps 737 mmHg 38%
    21:00 +24°C° 0 mm 1 mps 737 mmHg 38%
    22:00 +24°C° 0 mm 1 mps 737 mmHg 37%
    23:00 +23°C° 0 mm 1 mps 737 mmHg 36%

    26 August, Saturday

    Time Temperature Precipitation Wind Pressure Humidity
    00:00 +23°C° 0 mm 2 mps 737 mmHg 36%
    01:00 +23°C° 0 mm 2 mps 737 mmHg 35%
    02:00 +21°C° 0 mm 2 mps 737 mmHg 35%
    03:00 +21°C° 0 mm 2 mps 737 mmHg 36%
    04:00 +21°C° 0 mm 2 mps 737 mmHg 36%
    05:00 +23°C° 0 mm 2 mps 737 mmHg 35%
    06:00 +25°C° 0 mm 2 mps 737 mmHg 34%
    07:00 +27°C° 0 mm 2 mps 737 mmHg 33%
    08:00 +29°C° 0 mm 1 mps 737 mmHg 28%
    09:00 +32°C° 0 mm 1 mps 737 mmHg 24%
    10:00 +34°C° 0 mm 1 mps 737 mmHg 19%
    11:00 +36°C° 0 mm 2 mps 737 mmHg 18%
    12:00 +37°C° 0 mm 2 mps 737 mmHg 17%
    13:00 +37°C° 0 mm 3 mps 736 mmHg 16%
    14:00 +37°C° 0 mm 3 mps 736 mmHg 17%
    15:00 +36°C° 0 mm 3 mps 736 mmHg 18%
    16:00 +36°C° 0 mm 3 mps 736 mmHg 18%
    17:00 +32°C° 0 mm 2 mps 736 mmHg 24%
    18:00 +29°C° 0 mm 2 mps 736 mmHg 30%
    19:00 +26°C° 0 mm 1 mps 736 mmHg 35%
    20:00 +25°C° 0 mm 1 mps 736 mmHg 35%
    21:00 +25°C° 0 mm 1 mps 736 mmHg 35%
    22:00 +24°C° 0 mm 1 mps 736 mmHg 35%
    23:00 +24°C° 0 mm 1 mps 736 mmHg 34%

    27 August, Sunday

    Time Temperature Precipitation Wind Pressure Humidity
    00:00 +24°C° 0 mm 1 mps 736 mmHg 34%
    01:00 +23°C° 0 mm 1 mps 736 mmHg 34%
    02:00 +23°C° 0 mm 1 mps 736 mmHg 34%
    03:00 +23°C° 0 mm 1 mps 736 mmHg 34%
    04:00 +23°C° 0 mm 1 mps 736 mmHg 34%
    05:00 +24°C° 0 mm 1 mps 736 mmHg 33%
    06:00 +26°C° 0 mm 1 mps 736 mmHg 32%
    07:00 +28°C° 0 mm 1 mps 736 mmHg 31%
    08:00 +30°C° 0 mm 1 mps 736 mmHg 26%
    09:00 +33°C° 0 mm 1 mps 736 mmHg 22%
    10:00 +35°C° 0 mm 1 mps 736 mmHg 18%
    11:00 +37°C° 0 mm 2 mps 736 mmHg 17%
    12:00 +38°C° 0 mm 2 mps 735 mmHg 16%
    13:00 +38°C° 0 mm 3 mps 735 mmHg 15%
    14:00 +38°C° 0 mm 3 mps 735 mmHg 16%
    15:00 +37°C° 0 mm 3 mps 734 mmHg 17%
    16:00 +37°C° 0 mm 3 mps 734 mmHg 18%
    17:00 +32°C° 0 mm 2 mps 734 mmHg 24%
    18:00 +29°C° 0 mm 2 mps 734 mmHg 29%
    19:00 +26°C° 0 mm 1 mps 734 mmHg 35%
    20:00 +26°C° 0 mm 1 mps 734 mmHg 35%
    21:00 +25°C° 0 mm 1 mps 734 mmHg 34%
    22:00 +25°C° 0 mm 1 mps 734 mmHg 34%
    23:00 +25°C° 0 mm 1 mps 734 mmHg 33%
    Show more